Year,Month,Day,Hour,Minute,Value (Times are PST for temperature in C)
2018,08,09,00,00,18.40
2018,08,09,00,01,18.30
2018,08,09,00,02,18.30
2018,08,09,00,03,18.30
2018,08,09,00,04,18.30
2018,08,09,00,05,18.30
2018,08,09,00,06,18.30
2018,08,09,00,07,18.30
2018,08,09,00,08,18.40
2018,08,09,00,09,18.40
2018,08,09,00,10,18.40
2018,08,09,00,11,18.40
2018,08,09,00,12,18.40
2018,08,09,00,13,18.40
2018,08,09,00,14,18.40
2018,08,09,00,15,18.40
2018,08,09,00,16,18.40
2018,08,09,00,17,18.40
2018,08,09,00,18,18.40
2018,08,09,00,19,18.50
2018,08,09,00,20,18.50
2018,08,09,00,21,18.40
2018,08,09,00,22,18.40
2018,08,09,00,23,18.40
2018,08,09,00,24,18.40
2018,08,09,00,25,18.40
2018,08,09,00,26,18.40
2018,08,09,00,27,18.40
2018,08,09,00,28,18.40
2018,08,09,00,29,18.50
2018,08,09,00,30,18.50
2018,08,09,00,31,18.50
2018,08,09,00,32,18.50
2018,08,09,00,33,18.50
2018,08,09,00,34,18.50
2018,08,09,00,35,18.50
2018,08,09,00,36,18.60
2018,08,09,00,37,18.60
2018,08,09,00,38,18.60
2018,08,09,00,39,18.60
2018,08,09,00,40,18.60
2018,08,09,00,41,18.70
2018,08,09,00,42,18.70
2018,08,09,00,43,18.70
2018,08,09,00,44,18.80
2018,08,09,00,45,18.80
2018,08,09,00,46,18.80
2018,08,09,00,47,18.80
2018,08,09,00,48,18.90
2018,08,09,00,49,18.90
2018,08,09,00,50,18.90
2018,08,09,00,51,18.90
2018,08,09,00,52,19.00
2018,08,09,00,53,19.00
2018,08,09,00,54,19.10
2018,08,09,00,55,19.10
2018,08,09,00,56,19.10
2018,08,09,00,57,19.10
2018,08,09,00,58,19.20
2018,08,09,00,59,19.20
2018,08,09,01,00,19.20
2018,08,09,01,01,19.30
2018,08,09,01,02,19.30
2018,08,09,01,03,19.30
2018,08,09,01,04,19.30
2018,08,09,01,05,19.30
2018,08,09,01,06,19.30
2018,08,09,01,07,19.30
2018,08,09,01,08,19.30
2018,08,09,01,09,19.30
2018,08,09,01,10,19.30
2018,08,09,01,11,19.40
2018,08,09,01,12,19.40
2018,08,09,01,13,19.40
2018,08,09,01,14,19.40
2018,08,09,01,15,19.40
2018,08,09,01,16,19.40
2018,08,09,01,17,19.30
2018,08,09,01,18,19.30
2018,08,09,01,19,19.30
2018,08,09,01,20,19.30
2018,08,09,01,21,19.30
2018,08,09,01,22,19.30
2018,08,09,01,23,19.30
2018,08,09,01,24,19.30
2018,08,09,01,25,19.30
2018,08,09,01,26,19.30
2018,08,09,01,27,19.30
2018,08,09,01,28,19.30
2018,08,09,01,29,19.30
2018,08,09,01,30,19.30
2018,08,09,01,31,19.30
2018,08,09,01,32,19.30
2018,08,09,01,33,19.30
2018,08,09,01,34,19.30
2018,08,09,01,35,19.30
2018,08,09,01,36,19.20
2018,08,09,01,37,19.20
2018,08,09,01,38,19.20
2018,08,09,01,39,19.20
2018,08,09,01,40,19.20
2018,08,09,01,41,19.20
2018,08,09,01,42,19.20
2018,08,09,01,43,19.20
2018,08,09,01,44,19.20
2018,08,09,01,45,19.20
2018,08,09,01,46,19.20
2018,08,09,01,47,19.20
2018,08,09,01,48,19.20
2018,08,09,01,49,19.10
2018,08,09,01,50,19.10
2018,08,09,01,51,19.00
2018,08,09,01,52,19.00
2018,08,09,01,53,18.90
2018,08,09,01,54,18.90
2018,08,09,01,55,18.80
2018,08,09,01,56,18.70
2018,08,09,01,57,18.70
2018,08,09,01,58,18.60
2018,08,09,01,59,18.50
2018,08,09,02,00,18.50
2018,08,09,02,01,18.40
2018,08,09,02,02,18.40
2018,08,09,02,03,18.30
2018,08,09,02,04,18.30
2018,08,09,02,05,18.20
2018,08,09,02,06,18.20
2018,08,09,02,07,18.10
2018,08,09,02,08,18.10
2018,08,09,02,09,18.10
2018,08,09,02,10,18.00
2018,08,09,02,11,18.00
2018,08,09,02,12,17.90
2018,08,09,02,13,17.90
2018,08,09,02,14,17.90
2018,08,09,02,15,17.90
2018,08,09,02,16,17.90
2018,08,09,02,17,17.80
2018,08,09,02,18,17.80
2018,08,09,02,19,17.80
2018,08,09,02,20,17.80
2018,08,09,02,21,17.80
2018,08,09,02,22,17.80
2018,08,09,02,23,17.80
2018,08,09,02,24,17.80
2018,08,09,02,25,17.70
2018,08,09,02,26,17.70
2018,08,09,02,27,17.70
2018,08,09,02,28,17.70
2018,08,09,02,29,17.70
2018,08,09,02,30,17.60
2018,08,09,02,31,17.60
2018,08,09,02,32,17.60
2018,08,09,02,33,17.60
2018,08,09,02,34,17.50
2018,08,09,02,35,17.50
2018,08,09,02,36,17.50
2018,08,09,02,37,17.40
2018,08,09,02,38,17.40
2018,08,09,02,39,17.40
2018,08,09,02,40,17.40
2018,08,09,02,41,17.40
2018,08,09,02,42,17.40
2018,08,09,02,43,17.40
2018,08,09,02,44,17.40
2018,08,09,02,45,17.40
2018,08,09,02,46,17.40
2018,08,09,02,47,17.40
2018,08,09,02,48,17.40
2018,08,09,02,49,17.40
2018,08,09,02,50,17.40
2018,08,09,02,51,17.30
2018,08,09,02,52,17.30
2018,08,09,02,53,17.30
2018,08,09,02,54,17.20
2018,08,09,02,55,17.20
2018,08,09,02,56,17.20
2018,08,09,02,57,17.20
2018,08,09,02,58,17.10
2018,08,09,02,59,17.10
2018,08,09,03,00,17.10
2018,08,09,03,01,17.00
2018,08,09,03,02,17.00
2018,08,09,03,03,16.90
2018,08,09,03,04,16.90
2018,08,09,03,05,16.90
2018,08,09,03,06,16.90
2018,08,09,03,07,16.90
2018,08,09,03,08,16.80
2018,08,09,03,09,16.80
2018,08,09,03,10,16.80
2018,08,09,03,11,16.80
2018,08,09,03,12,16.80
2018,08,09,03,13,16.80
2018,08,09,03,14,16.80
2018,08,09,03,15,16.80
2018,08,09,03,16,16.80
2018,08,09,03,17,16.80
2018,08,09,03,18,16.70
2018,08,09,03,19,16.70
2018,08,09,03,20,16.70
2018,08,09,03,21,16.70
2018,08,09,03,22,16.70
2018,08,09,03,23,16.70
2018,08,09,03,24,16.60
2018,08,09,03,25,16.60
2018,08,09,03,26,16.60
2018,08,09,03,27,16.60
2018,08,09,03,28,16.60
2018,08,09,03,29,16.60
2018,08,09,03,30,16.50
2018,08,09,03,31,16.50
2018,08,09,03,32,16.50
2018,08,09,03,33,16.50
2018,08,09,03,34,16.50
2018,08,09,03,35,16.50
2018,08,09,03,36,16.40
2018,08,09,03,37,16.40
2018,08,09,03,38,16.40
2018,08,09,03,39,16.40
2018,08,09,03,40,16.40
2018,08,09,03,41,16.40
2018,08,09,03,42,16.40
2018,08,09,03,43,16.30
2018,08,09,03,44,16.30
2018,08,09,03,45,16.30
2018,08,09,03,46,16.30
2018,08,09,03,47,16.30
2018,08,09,03,48,16.30
2018,08,09,03,49,16.30
2018,08,09,03,50,16.30
2018,08,09,03,51,16.30
2018,08,09,03,52,16.30
2018,08,09,03,53,16.30
2018,08,09,03,54,16.20
2018,08,09,03,55,16.20
2018,08,09,03,56,16.20
2018,08,09,03,57,16.20
2018,08,09,03,58,16.20
2018,08,09,03,59,16.20
2018,08,09,04,00,16.20
2018,08,09,04,01,16.20
2018,08,09,04,02,16.20
2018,08,09,04,03,16.20
2018,08,09,04,04,16.20
2018,08,09,04,05,16.20
2018,08,09,04,06,16.20
2018,08,09,04,07,16.20
2018,08,09,04,08,16.20
2018,08,09,04,09,16.20
2018,08,09,04,10,16.20
2018,08,09,04,11,16.20
2018,08,09,04,12,16.20
2018,08,09,04,13,16.20
2018,08,09,04,14,16.20
2018,08,09,04,15,16.20
2018,08,09,04,16,16.20
2018,08,09,04,17,16.20
2018,08,09,04,18,16.30
2018,08,09,04,19,16.30
2018,08,09,04,20,16.30
2018,08,09,04,21,16.30
2018,08,09,04,22,16.40
2018,08,09,04,23,16.40
2018,08,09,04,24,16.40
2018,08,09,04,25,16.40
2018,08,09,04,26,16.40
2018,08,09,04,27,16.30
2018,08,09,04,28,16.20
2018,08,09,04,29,16.10
2018,08,09,04,30,15.90
2018,08,09,04,31,15.90
2018,08,09,04,32,15.70
2018,08,09,04,33,15.60
2018,08,09,04,34,15.50
2018,08,09,04,35,15.50
2018,08,09,04,36,15.40
2018,08,09,04,37,15.30
2018,08,09,04,38,15.20
2018,08,09,04,39,15.10
2018,08,09,04,40,15.10
2018,08,09,04,41,15.00
2018,08,09,04,42,15.00
2018,08,09,04,43,15.00
2018,08,09,04,44,14.90
2018,08,09,04,45,14.90
2018,08,09,04,46,14.80
2018,08,09,04,47,14.80
2018,08,09,04,48,14.80
2018,08,09,04,49,14.80
2018,08,09,04,50,14.80
2018,08,09,04,51,14.70
2018,08,09,04,52,14.70
2018,08,09,04,53,14.70
2018,08,09,04,54,14.70
2018,08,09,04,55,14.60
2018,08,09,04,56,14.60
2018,08,09,04,57,14.60
2018,08,09,04,58,14.60
2018,08,09,04,59,14.50
2018,08,09,05,00,14.50
2018,08,09,05,01,14.50
2018,08,09,05,02,14.40
2018,08,09,05,03,14.40
2018,08,09,05,04,14.40
2018,08,09,05,05,14.30
2018,08,09,05,06,14.30
2018,08,09,05,07,14.30
2018,08,09,05,08,14.20
2018,08,09,05,09,14.20
2018,08,09,05,10,14.20
2018,08,09,05,11,14.10
2018,08,09,05,12,14.10
2018,08,09,05,13,14.00
2018,08,09,05,14,14.00
2018,08,09,05,15,14.00
2018,08,09,05,16,13.90
2018,08,09,05,17,13.90
2018,08,09,05,18,13.90
2018,08,09,05,19,13.90
2018,08,09,05,20,13.90
2018,08,09,05,21,13.90
2018,08,09,05,22,13.90
2018,08,09,05,23,13.80
2018,08,09,05,24,13.80
2018,08,09,05,25,13.80
2018,08,09,05,26,13.80
2018,08,09,05,27,13.80
2018,08,09,05,28,13.80
2018,08,09,05,29,13.80
2018,08,09,05,30,13.80
2018,08,09,05,31,13.80
2018,08,09,05,32,13.70
2018,08,09,05,33,13.70
2018,08,09,05,34,13.70
2018,08,09,05,35,13.70
2018,08,09,05,36,13.70
2018,08,09,05,37,13.70
2018,08,09,05,38,13.70
2018,08,09,05,39,13.70
2018,08,09,05,40,13.70
2018,08,09,05,41,13.70
2018,08,09,05,42,13.70
2018,08,09,05,43,13.70
2018,08,09,05,44,13.70
2018,08,09,05,45,13.70
2018,08,09,05,46,13.70
2018,08,09,05,47,13.70
2018,08,09,05,48,13.70
2018,08,09,05,49,13.70
2018,08,09,05,50,13.70
2018,08,09,05,51,13.70
2018,08,09,05,52,13.70
2018,08,09,05,53,13.70
2018,08,09,05,54,13.70
2018,08,09,05,55,13.80
2018,08,09,05,56,13.80
2018,08,09,05,57,13.80
2018,08,09,05,58,13.80
2018,08,09,05,59,13.80
2018,08,09,06,00,13.80
2018,08,09,06,01,13.80
2018,08,09,06,02,13.80
2018,08,09,06,03,13.90
2018,08,09,06,04,13.90
2018,08,09,06,05,13.90
2018,08,09,06,06,13.90
2018,08,09,06,07,13.90
2018,08,09,06,08,13.90
2018,08,09,06,09,13.90
2018,08,09,06,10,13.90
2018,08,09,06,11,13.90
2018,08,09,06,12,13.90
2018,08,09,06,13,13.90
2018,08,09,06,14,14.00
2018,08,09,06,15,14.00
2018,08,09,06,16,14.00
2018,08,09,06,17,14.00
2018,08,09,06,18,14.00
2018,08,09,06,19,14.00
2018,08,09,06,20,14.00
2018,08,09,06,21,14.00
2018,08,09,06,22,14.00
2018,08,09,06,23,14.10
2018,08,09,06,24,14.10
2018,08,09,06,25,14.10
2018,08,09,06,26,14.10
2018,08,09,06,27,14.10
2018,08,09,06,28,14.10
2018,08,09,06,29,14.10
2018,08,09,06,30,14.10
2018,08,09,06,31,14.10
2018,08,09,06,32,14.10
2018,08,09,06,33,14.10
2018,08,09,06,34,14.10
2018,08,09,06,35,14.10
2018,08,09,06,36,14.10
2018,08,09,06,37,14.10
2018,08,09,06,38,14.10
2018,08,09,06,39,14.10
2018,08,09,06,40,14.10
2018,08,09,06,41,14.10
2018,08,09,06,42,14.10
2018,08,09,06,43,14.10
2018,08,09,06,44,14.10
2018,08,09,06,45,14.10
2018,08,09,06,46,14.10
2018,08,09,06,47,14.10
2018,08,09,06,48,14.10
2018,08,09,06,49,14.10
2018,08,09,06,50,14.10
2018,08,09,06,51,14.10
2018,08,09,06,52,14.10
2018,08,09,06,53,14.20
2018,08,09,06,54,14.20
2018,08,09,06,55,14.20
2018,08,09,06,56,14.20
2018,08,09,06,57,14.20
2018,08,09,06,58,14.20
2018,08,09,06,59,14.30
2018,08,09,07,00,14.30
2018,08,09,07,01,14.30
2018,08,09,07,02,14.30
2018,08,09,07,03,14.30
2018,08,09,07,04,14.30
2018,08,09,07,05,14.40
2018,08,09,07,06,14.40
2018,08,09,07,07,14.40
2018,08,09,07,08,14.40
2018,08,09,07,09,14.40
2018,08,09,07,10,14.40
2018,08,09,07,11,14.40
2018,08,09,07,12,14.50
2018,08,09,07,13,14.50
2018,08,09,07,14,14.50
2018,08,09,07,15,14.60
2018,08,09,07,16,14.60
2018,08,09,07,17,14.60
2018,08,09,07,18,14.60
2018,08,09,07,19,14.70
2018,08,09,07,20,14.70
2018,08,09,07,21,14.70
2018,08,09,07,22,14.80
2018,08,09,07,23,14.80
2018,08,09,07,24,14.80
2018,08,09,07,25,14.90
2018,08,09,07,26,14.90
2018,08,09,07,27,15.00
2018,08,09,07,28,15.00
2018,08,09,07,29,15.00
2018,08,09,07,30,15.10
2018,08,09,07,31,15.10
2018,08,09,07,32,15.10
2018,08,09,07,33,15.20
2018,08,09,07,34,15.20
2018,08,09,07,35,15.20
2018,08,09,07,36,15.20
2018,08,09,07,37,15.20
2018,08,09,07,38,15.20
2018,08,09,07,39,15.20
2018,08,09,07,40,15.20
2018,08,09,07,41,15.20
2018,08,09,07,42,15.20
2018,08,09,07,43,15.20
2018,08,09,07,44,15.20
2018,08,09,07,45,15.10
2018,08,09,07,46,15.10
2018,08,09,07,47,15.10
2018,08,09,07,48,15.10
2018,08,09,07,49,15.10
2018,08,09,07,50,15.20
2018,08,09,07,51,15.20
2018,08,09,07,52,15.20
2018,08,09,07,53,15.20
2018,08,09,07,54,15.20
2018,08,09,07,55,15.20
2018,08,09,07,56,15.20
2018,08,09,07,57,15.20
2018,08,09,07,58,15.30
2018,08,09,07,59,15.30
2018,08,09,08,00,15.30
2018,08,09,08,01,15.30
2018,08,09,08,02,15.30
2018,08,09,08,03,15.30
2018,08,09,08,04,15.30
2018,08,09,08,05,15.30
2018,08,09,08,06,15.30
2018,08,09,08,07,15.40
2018,08,09,08,08,15.30
2018,08,09,08,09,15.30
2018,08,09,08,10,15.40
2018,08,09,08,11,15.40
2018,08,09,08,12,15.40
2018,08,09,08,13,15.40
2018,08,09,08,14,15.40
2018,08,09,08,15,15.40
2018,08,09,08,16,15.40
2018,08,09,08,17,15.50
2018,08,09,08,18,15.50
2018,08,09,08,19,15.50
2018,08,09,08,20,15.50
2018,08,09,08,21,15.60
2018,08,09,08,22,15.60
2018,08,09,08,23,15.70
2018,08,09,08,24,15.70
2018,08,09,08,25,15.80
2018,08,09,08,26,15.80
2018,08,09,08,27,15.90
2018,08,09,08,28,15.90
2018,08,09,08,29,15.90
2018,08,09,08,30,16.00
2018,08,09,08,31,16.00
2018,08,09,08,32,16.10
2018,08,09,08,33,16.10
2018,08,09,08,34,16.20
2018,08,09,08,35,16.20
2018,08,09,08,36,16.20
2018,08,09,08,37,16.20
2018,08,09,08,38,16.30
2018,08,09,08,39,16.30
2018,08,09,08,40,16.30
2018,08,09,08,41,16.30
2018,08,09,08,42,16.30
2018,08,09,08,43,16.40
2018,08,09,08,44,16.40
2018,08,09,08,45,16.40
2018,08,09,08,46,16.40
2018,08,09,08,47,16.40
2018,08,09,08,48,16.40
2018,08,09,08,49,16.50
2018,08,09,08,50,16.50
2018,08,09,08,51,16.60
2018,08,09,08,52,16.60
2018,08,09,08,53,16.60
2018,08,09,08,54,16.70
2018,08,09,08,55,16.70
2018,08,09,08,56,16.80
2018,08,09,08,57,16.80
2018,08,09,08,58,16.80
2018,08,09,08,59,16.90
2018,08,09,09,00,16.90
2018,08,09,09,01,16.90
2018,08,09,09,02,17.00
2018,08,09,09,03,17.00
2018,08,09,09,04,17.00
2018,08,09,09,05,17.00
2018,08,09,09,06,17.10
2018,08,09,09,07,17.10
2018,08,09,09,08,17.10
2018,08,09,09,09,17.10
2018,08,09,09,10,17.20
2018,08,09,09,11,17.20
2018,08,09,09,12,17.20
2018,08,09,09,13,17.20
2018,08,09,09,14,17.20
2018,08,09,09,15,17.30
2018,08,09,09,16,17.30
2018,08,09,09,17,17.30
2018,08,09,09,18,17.30
2018,08,09,09,19,17.40
2018,08,09,09,20,17.40
2018,08,09,09,21,17.40
2018,08,09,09,22,17.40
2018,08,09,09,23,17.40
2018,08,09,09,24,17.40
2018,08,09,09,25,17.40
2018,08,09,09,26,17.50
2018,08,09,09,27,17.50
2018,08,09,09,28,17.60
2018,08,09,09,29,17.60
2018,08,09,09,30,17.60
2018,08,09,09,31,17.70
2018,08,09,09,32,17.70
2018,08,09,09,33,17.70
2018,08,09,09,34,17.80
2018,08,09,09,35,17.80
2018,08,09,09,36,17.80
2018,08,09,09,37,17.80
2018,08,09,09,38,17.80
2018,08,09,09,39,17.80
2018,08,09,09,40,17.80
2018,08,09,09,41,17.80
2018,08,09,09,42,17.80
2018,08,09,09,43,17.70
2018,08,09,09,44,17.70
2018,08,09,09,45,17.70
2018,08,09,09,46,17.70
2018,08,09,09,47,17.70
2018,08,09,09,48,17.70
2018,08,09,09,49,17.80
2018,08,09,09,50,17.80
2018,08,09,09,51,17.80
2018,08,09,09,52,17.80
2018,08,09,09,53,17.80
2018,08,09,09,54,17.80
2018,08,09,09,55,17.70
2018,08,09,09,56,17.70
2018,08,09,09,57,17.70
2018,08,09,09,58,17.60
2018,08,09,09,59,17.60
2018,08,09,10,00,17.60
2018,08,09,10,01,17.50
2018,08,09,10,02,17.40
2018,08,09,10,03,17.30
2018,08,09,10,04,17.20
2018,08,09,10,05,17.20
2018,08,09,10,06,17.10
2018,08,09,10,07,17.00
2018,08,09,10,08,16.90
2018,08,09,10,09,16.80
2018,08,09,10,10,16.80
2018,08,09,10,11,16.70
2018,08,09,10,12,16.70
2018,08,09,10,13,16.60
2018,08,09,10,14,16.60
2018,08,09,10,15,16.60
2018,08,09,10,16,16.50
2018,08,09,10,17,16.40
2018,08,09,10,18,16.40
2018,08,09,10,19,16.30
2018,08,09,10,20,16.10
2018,08,09,10,21,15.90
2018,08,09,10,22,15.70
2018,08,09,10,23,15.50
2018,08,09,10,24,15.30
2018,08,09,10,25,15.20
2018,08,09,10,26,15.10
2018,08,09,10,27,15.00
2018,08,09,10,28,15.00
2018,08,09,10,29,14.90
2018,08,09,10,30,14.90
2018,08,09,10,31,14.90
2018,08,09,10,32,14.80
2018,08,09,10,33,14.80
2018,08,09,10,34,14.80
2018,08,09,10,35,14.80
2018,08,09,10,36,14.80
2018,08,09,10,37,14.80
2018,08,09,10,38,14.80
2018,08,09,10,39,14.80
2018,08,09,10,40,14.80
2018,08,09,10,41,14.80
2018,08,09,10,42,14.80
2018,08,09,10,43,14.80
2018,08,09,10,44,14.80
2018,08,09,10,45,14.80
2018,08,09,10,46,14.90
2018,08,09,10,47,14.90
2018,08,09,10,48,14.90
2018,08,09,10,49,14.90
2018,08,09,10,50,14.90
2018,08,09,10,51,14.90
2018,08,09,10,52,15.00
2018,08,09,10,53,15.00
2018,08,09,10,54,15.00
2018,08,09,10,55,15.00
2018,08,09,10,56,15.10
2018,08,09,10,57,15.10
2018,08,09,10,58,15.20
2018,08,09,10,59,15.20
2018,08,09,11,00,15.30
2018,08,09,11,01,15.30
2018,08,09,11,02,15.30
2018,08,09,11,03,15.30
2018,08,09,11,04,15.30
2018,08,09,11,05,15.40
2018,08,09,11,06,15.40
2018,08,09,11,07,15.50
2018,08,09,11,08,15.50
2018,08,09,11,09,15.60
2018,08,09,11,10,15.60
2018,08,09,11,11,15.70
2018,08,09,11,12,15.80
2018,08,09,11,13,15.90
2018,08,09,11,14,16.00
2018,08,09,11,15,16.10
2018,08,09,11,16,16.20
2018,08,09,11,17,16.30
2018,08,09,11,18,16.40
2018,08,09,11,19,16.50
2018,08,09,11,20,16.50
2018,08,09,11,21,16.60
2018,08,09,11,22,16.70
2018,08,09,11,23,16.70
2018,08,09,11,24,16.80
2018,08,09,11,25,16.80
2018,08,09,11,26,16.80
2018,08,09,11,27,16.80
2018,08,09,11,28,16.90
2018,08,09,11,29,16.90
2018,08,09,11,30,17.00
2018,08,09,11,31,16.90
2018,08,09,11,32,16.90
2018,08,09,11,33,16.90
2018,08,09,11,34,17.00
2018,08,09,11,35,17.00
2018,08,09,11,36,17.00
2018,08,09,11,37,17.10
2018,08,09,11,38,17.20
2018,08,09,11,39,17.30
2018,08,09,11,40,17.30
2018,08,09,11,41,17.40
2018,08,09,11,42,17.50
2018,08,09,11,43,17.50
2018,08,09,11,44,17.60
2018,08,09,11,45,17.70
2018,08,09,11,46,17.70
2018,08,09,11,47,17.80
2018,08,09,11,48,17.80
2018,08,09,11,49,17.90
2018,08,09,11,50,18.00
2018,08,09,11,51,18.10
2018,08,09,11,52,18.10
2018,08,09,11,53,18.20
2018,08,09,11,54,18.30
2018,08,09,11,55,18.40
2018,08,09,11,56,18.50
2018,08,09,11,57,18.60
2018,08,09,11,58,18.60
2018,08,09,11,59,18.70
2018,08,09,12,00,18.80
2018,08,09,12,01,18.90
2018,08,09,12,02,18.90
2018,08,09,12,03,19.00
2018,08,09,12,04,19.10
2018,08,09,12,05,19.10
2018,08,09,12,06,19.20
2018,08,09,12,07,19.30
2018,08,09,12,08,19.30
2018,08,09,12,09,19.40
2018,08,09,12,10,19.40
2018,08,09,12,11,19.50
2018,08,09,12,12,19.60
2018,08,09,12,13,19.60
2018,08,09,12,14,19.70
2018,08,09,12,15,19.70
2018,08,09,12,16,19.80
2018,08,09,12,17,19.80
2018,08,09,12,18,19.90
2018,08,09,12,19,19.90
2018,08,09,12,20,19.90
2018,08,09,12,21,19.90
2018,08,09,12,22,20.00
2018,08,09,12,23,20.00
2018,08,09,12,24,20.00
2018,08,09,12,25,20.10
2018,08,09,12,26,20.10
2018,08,09,12,27,20.00
2018,08,09,12,28,20.00
2018,08,09,12,29,20.00
2018,08,09,12,30,20.00
2018,08,09,12,31,20.00
2018,08,09,12,32,20.00
2018,08,09,12,33,20.00
2018,08,09,12,34,20.00
2018,08,09,12,35,20.00
2018,08,09,12,36,20.00
2018,08,09,12,37,19.90
2018,08,09,12,38,19.80
2018,08,09,12,39,19.80
2018,08,09,12,40,19.80
2018,08,09,12,41,19.70
2018,08,09,12,42,19.70
2018,08,09,12,43,19.60
2018,08,09,12,44,19.50
2018,08,09,12,45,19.50
2018,08,09,12,46,19.40
2018,08,09,12,47,19.40
2018,08,09,12,48,19.30
2018,08,09,12,49,19.30
2018,08,09,12,50,19.30
2018,08,09,12,51,19.30
2018,08,09,12,52,19.20
2018,08,09,12,53,19.20
2018,08,09,12,54,19.20
2018,08,09,12,55,19.30
2018,08,09,12,56,19.30
2018,08,09,12,57,19.30
2018,08,09,12,58,19.40
2018,08,09,12,59,19.40
2018,08,09,13,00,19.50
2018,08,09,13,01,19.50
2018,08,09,13,02,19.60
2018,08,09,13,03,19.60
2018,08,09,13,04,19.70
2018,08,09,13,05,19.70
2018,08,09,13,06,19.80
2018,08,09,13,07,19.80
2018,08,09,13,08,19.90
2018,08,09,13,09,19.90
2018,08,09,13,10,20.00
2018,08,09,13,11,20.00
2018,08,09,13,12,20.10
2018,08,09,13,13,20.20
2018,08,09,13,14,20.20
2018,08,09,13,15,20.30
2018,08,09,13,16,20.30
2018,08,09,13,17,20.40
2018,08,09,13,18,20.50
2018,08,09,13,19,20.50
2018,08,09,13,20,20.60
2018,08,09,13,21,20.70
2018,08,09,13,22,20.70
2018,08,09,13,23,20.80
2018,08,09,13,24,20.80
2018,08,09,13,25,20.80
2018,08,09,13,26,20.90
2018,08,09,13,27,20.90
2018,08,09,13,28,20.90
2018,08,09,13,29,21.00
2018,08,09,13,30,21.00
2018,08,09,13,31,21.00
2018,08,09,13,32,21.00
2018,08,09,13,33,20.90
2018,08,09,13,34,20.90
2018,08,09,13,35,20.90
2018,08,09,13,36,20.90
2018,08,09,13,37,20.90
2018,08,09,13,38,20.90
2018,08,09,13,39,20.80
2018,08,09,13,40,20.80
2018,08,09,13,41,20.80
2018,08,09,13,42,20.80
2018,08,09,13,43,20.80
2018,08,09,13,44,20.80
2018,08,09,13,45,20.80
2018,08,09,13,46,20.80
2018,08,09,13,47,20.80
2018,08,09,13,48,20.70
2018,08,09,13,49,20.70
2018,08,09,13,50,20.60
2018,08,09,13,51,20.60
2018,08,09,13,52,20.50
2018,08,09,13,53,20.40
2018,08,09,13,54,20.20
2018,08,09,13,55,20.10
2018,08,09,13,56,20.00
2018,08,09,13,57,19.90
2018,08,09,13,58,19.80
2018,08,09,13,59,19.80
2018,08,09,14,00,19.70
2018,08,09,14,01,19.60
2018,08,09,14,02,19.60
2018,08,09,14,03,19.50
2018,08,09,14,04,19.50
2018,08,09,14,05,19.50
2018,08,09,14,06,19.50
2018,08,09,14,07,19.50
2018,08,09,14,08,19.50
2018,08,09,14,09,19.50
2018,08,09,14,10,19.40
2018,08,09,14,11,19.40
2018,08,09,14,12,19.40
2018,08,09,14,13,19.50
2018,08,09,14,14,19.50
2018,08,09,14,15,19.60
2018,08,09,14,16,19.60
2018,08,09,14,17,19.70
2018,08,09,14,18,19.80
2018,08,09,14,19,19.80
2018,08,09,14,20,19.90
2018,08,09,14,21,19.90
2018,08,09,14,22,20.00
2018,08,09,14,23,20.00
2018,08,09,14,24,20.00
2018,08,09,14,25,20.00
2018,08,09,14,26,20.00
2018,08,09,14,27,19.90
2018,08,09,14,28,19.90
2018,08,09,14,29,19.90
2018,08,09,14,30,19.90
2018,08,09,14,31,19.90
2018,08,09,14,32,19.90
2018,08,09,14,33,19.90
2018,08,09,14,34,19.90
2018,08,09,14,35,19.90
2018,08,09,14,36,19.90
2018,08,09,14,37,19.90
2018,08,09,14,38,19.90
2018,08,09,14,39,19.90
2018,08,09,14,40,19.90
2018,08,09,14,41,19.90
2018,08,09,14,42,19.90
2018,08,09,14,43,20.00
2018,08,09,14,44,20.00
2018,08,09,14,45,20.10
2018,08,09,14,46,20.10
2018,08,09,14,47,20.20
2018,08,09,14,48,20.20
2018,08,09,14,49,20.30
2018,08,09,14,50,20.30
2018,08,09,14,51,20.40
2018,08,09,14,52,20.50
2018,08,09,14,53,20.60
2018,08,09,14,54,20.70
2018,08,09,14,55,20.80
2018,08,09,14,56,21.00
2018,08,09,14,57,21.10
2018,08,09,14,58,21.20
2018,08,09,14,59,21.40
2018,08,09,15,00,21.50
2018,08,09,15,01,21.60
2018,08,09,15,02,21.70
2018,08,09,15,03,21.80
2018,08,09,15,04,22.00
2018,08,09,15,05,22.10
2018,08,09,15,06,22.20
2018,08,09,15,07,22.30
2018,08,09,15,08,22.30
2018,08,09,15,09,22.40
2018,08,09,15,10,22.50
2018,08,09,15,11,22.60
2018,08,09,15,12,22.60
2018,08,09,15,13,22.70
2018,08,09,15,14,22.80
2018,08,09,15,15,22.90
2018,08,09,15,16,22.90
2018,08,09,15,17,23.00
2018,08,09,15,18,23.00
2018,08,09,15,19,23.10
2018,08,09,15,20,23.20
2018,08,09,15,21,23.20
2018,08,09,15,22,23.20
2018,08,09,15,23,23.20
2018,08,09,15,24,23.20
2018,08,09,15,25,23.20
2018,08,09,15,26,23.20
2018,08,09,15,27,23.30
2018,08,09,15,28,23.30
2018,08,09,15,29,23.30
2018,08,09,15,30,23.40
2018,08,09,15,31,23.40
2018,08,09,15,32,23.40
2018,08,09,15,33,23.50
2018,08,09,15,34,23.40
2018,08,09,15,35,23.50
2018,08,09,15,36,23.50
2018,08,09,15,37,23.50
2018,08,09,15,38,23.60
2018,08,09,15,39,23.60
2018,08,09,15,40,23.60
2018,08,09,15,41,23.60
2018,08,09,15,42,23.60
2018,08,09,15,43,23.60
2018,08,09,15,44,23.70
2018,08,09,15,45,23.70
2018,08,09,15,46,23.70
2018,08,09,15,47,23.80
2018,08,09,15,48,23.80
2018,08,09,15,49,23.80
2018,08,09,15,50,23.80
2018,08,09,15,51,23.80
2018,08,09,15,52,23.80
2018,08,09,15,53,23.80
2018,08,09,15,54,23.80
2018,08,09,15,55,23.80
2018,08,09,15,56,23.80
2018,08,09,15,57,23.90
2018,08,09,15,58,23.90
2018,08,09,15,59,23.90
2018,08,09,16,00,23.90
2018,08,09,16,01,23.90
2018,08,09,16,02,23.90
2018,08,09,16,03,23.90
2018,08,09,16,04,23.90
2018,08,09,16,05,23.90
2018,08,09,16,06,23.80
2018,08,09,16,07,23.80
2018,08,09,16,08,23.80
2018,08,09,16,09,23.80
2018,08,09,16,10,23.70
2018,08,09,16,11,23.70
2018,08,09,16,12,23.60
2018,08,09,16,13,23.60
2018,08,09,16,14,23.60
2018,08,09,16,15,23.60
2018,08,09,16,16,23.50
2018,08,09,16,17,23.50
2018,08,09,16,18,23.50
2018,08,09,16,19,23.50
2018,08,09,16,20,23.60
2018,08,09,16,21,23.60
2018,08,09,16,22,23.60
2018,08,09,16,23,23.70
2018,08,09,16,24,23.70
2018,08,09,16,25,23.80
2018,08,09,16,26,23.80
2018,08,09,16,27,23.80
2018,08,09,16,28,23.80
2018,08,09,16,29,23.80
2018,08,09,16,30,23.80
2018,08,09,16,31,23.80
2018,08,09,16,32,23.80
2018,08,09,16,33,23.80
2018,08,09,16,34,23.80
2018,08,09,16,35,23.80
2018,08,09,16,36,23.80
2018,08,09,16,37,23.80
2018,08,09,16,38,23.80
2018,08,09,16,39,23.80
2018,08,09,16,40,23.80
2018,08,09,16,41,23.70
2018,08,09,16,42,23.70
2018,08,09,16,43,23.60
2018,08,09,16,44,23.60
2018,08,09,16,45,23.60
2018,08,09,16,46,23.60
2018,08,09,16,47,23.50
2018,08,09,16,48,23.50
2018,08,09,16,49,23.40
2018,08,09,16,50,23.40
2018,08,09,16,51,23.40
2018,08,09,16,52,23.40
2018,08,09,16,53,23.40
2018,08,09,16,54,23.40
2018,08,09,16,55,23.40
2018,08,09,16,56,23.30
2018,08,09,16,57,23.30
2018,08,09,16,58,23.30
2018,08,09,16,59,23.30
2018,08,09,17,00,23.30
2018,08,09,17,01,23.30
2018,08,09,17,02,23.30
2018,08,09,17,03,23.30
2018,08,09,17,04,23.40
2018,08,09,17,05,23.40
2018,08,09,17,06,23.40
2018,08,09,17,07,23.40
2018,08,09,17,08,23.40
2018,08,09,17,09,23.50
2018,08,09,17,10,23.50
2018,08,09,17,11,23.60
2018,08,09,17,12,23.60
2018,08,09,17,13,23.60
2018,08,09,17,14,23.60
2018,08,09,17,15,23.60
2018,08,09,17,16,23.60
2018,08,09,17,17,23.60
2018,08,09,17,18,23.60
2018,08,09,17,19,23.60